Time,TemperatureF,DewpointF,PressureIn,WindDirection,WindDirectionDegrees,WindSpeedMPH,WindSpeedGustMPH,Humidity,HourlyPrecipIn,Conditions,Clouds,dailyrainin,SoftwareType,DateUTC
2013-06-12 00:08:00,60.9,60.0,29.82,SSW,201,2.0,2.0,96,0.00,,,0.00,weatherlink.com 1.10,2013-06-12 04:08:00,
2013-06-12 00:23:00,61.4,61.0,29.82,SSE,167,2.0,3.0,97,0.00,,,0.00,weatherlink.com 1.10,2013-06-12 04:23:00,
2013-06-12 00:38:00,61.5,60.0,29.83,SSE,152,0.0,1.0,96,0.00,,,0.00,weatherlink.com 1.10,2013-06-12 04:38:00,
2013-06-12 00:53:00,61.5,60.0,29.83,SSE,152,0.0,1.0,96,0.00,,,0.00,weatherlink.com 1.10,2013-06-12 04:53:00,
2013-06-12 01:08:00,61.3,60.0,29.83,SSE,152,0.0,1.0,96,0.00,,,0.00,weatherlink.com 1.10,2013-06-12 05:08:00,
2013-06-12 01:23:00,61.4,61.0,29.84,NNE,15,0.0,4.0,97,0.00,,,0.00,weatherlink.com 1.10,2013-06-12 05:23:00,
2013-06-12 01:38:00,61.3,60.0,29.84,ENE,74,0.0,2.0,96,0.00,,,0.00,weatherlink.com 1.10,2013-06-12 05:38:00,
2013-06-12 01:53:00,61.1,60.0,29.84,ENE,74,0.0,1.0,96,0.00,,,0.00,weatherlink.com 1.10,2013-06-12 05:53:00,
2013-06-12 02:08:00,60.6,60.0,29.83,ENE,74,0.0,1.0,96,0.00,,,0.00,weatherlink.com 1.10,2013-06-12 06:08:00,
2013-06-12 02:23:00,60.2,59.0,29.83,ENE,74,0.0,0.0,96,0.00,,,0.00,weatherlink.com 1.10,2013-06-12 06:23:00,
2013-06-12 02:38:00,59.8,59.0,29.83,ENE,74,0.0,2.0,96,0.00,,,0.00,weatherlink.com 1.10,2013-06-12 06:38:00,
2013-06-12 02:53:00,59.5,59.0,29.83,ENE,74,0.0,1.0,97,0.00,,,0.00,weatherlink.com 1.10,2013-06-12 06:53:00,
2013-06-12 03:08:00,59.3,59.0,29.82,ENE,74,0.0,0.0,97,0.00,,,0.00,weatherlink.com 1.10,2013-06-12 07:08:00,
2013-06-12 03:23:00,59.6,59.0,29.83,NNE,22,2.0,3.0,97,0.00,,,0.00,weatherlink.com 1.10,2013-06-12 07:23:00,
2013-06-12 03:38:00,60.4,60.0,29.83,NE,36,0.0,2.0,98,0.00,,,0.00,weatherlink.com 1.10,2013-06-12 07:38:00,
2013-06-12 03:53:00,60.8,60.0,29.82,ESE,114,2.0,5.0,98,0.00,,,0.00,weatherlink.com 1.10,2013-06-12 07:53:00,
2013-06-12 04:08:00,60.7,60.0,29.82,ESE,114,1.0,2.0,97,0.00,,,0.00,weatherlink.com 1.10,2013-06-12 08:08:00,
2013-06-12 04:23:00,60.6,60.0,29.82,ESE,114,0.0,0.0,97,0.00,,,0.00,weatherlink.com 1.10,2013-06-12 08:23:00,
2013-06-12 04:38:00,60.3,60.0,29.83,East,92,2.0,2.0,97,0.00,,,0.00,weatherlink.com 1.10,2013-06-12 08:38:00,
2013-06-12 04:53:00,60.4,60.0,29.83,NNE,27,0.0,1.0,97,0.00,,,0.00,weatherlink.com 1.10,2013-06-12 08:53:00,
2013-06-12 05:08:00,60.2,59.0,29.83,NNE,27,0.0,0.0,97,0.00,,,0.00,weatherlink.com 1.10,2013-06-12 09:08:00,
2013-06-12 05:23:00,60.1,59.0,29.83,East,79,0.0,2.0,97,0.00,,,0.00,weatherlink.com 1.10,2013-06-12 09:23:00,
2013-06-12 05:38:00,59.9,59.0,29.83,East,79,0.0,1.0,97,0.00,,,0.00,weatherlink.com 1.10,2013-06-12 09:38:00,
2013-06-12 05:53:00,59.8,59.0,29.83,East,79,0.0,0.0,97,0.00,,,0.00,weatherlink.com 1.10,2013-06-12 09:53:00,
2013-06-12 06:08:00,59.4,59.0,29.84,East,79,0.0,1.0,97,0.00,,,0.00,weatherlink.com 1.10,2013-06-12 10:08:00,
2013-06-12 06:23:00,60.1,60.0,29.84,SE,130,1.0,3.0,98,0.00,,,0.00,weatherlink.com 1.10,2013-06-12 10:23:00,
2013-06-12 06:38:00,60.8,60.0,29.85,South,177,2.0,4.0,97,0.00,,,0.00,weatherlink.com 1.10,2013-06-12 10:38:00,
2013-06-12 06:53:00,61.5,60.0,29.86,South,185,1.0,4.0,95,0.00,,,0.00,weatherlink.com 1.10,2013-06-12 10:53:00,
2013-06-12 07:08:00,62.1,61.0,29.87,SSW,194,2.0,4.0,95,0.00,,,0.00,weatherlink.com 1.10,2013-06-12 11:08:00,
2013-06-12 07:24:00,62.7,61.0,29.87,South,170,3.0,4.0,94,0.00,,,0.00,weatherlink.com 1.10,2013-06-12 11:24:00,
2013-06-12 07:39:00,63.4,61.0,29.87,South,187,0.0,4.0,93,0.00,,,0.00,weatherlink.com 1.10,2013-06-12 11:39:00,
2013-06-12 07:54:00,64.6,62.0,29.88,North,5,2.0,6.0,92,0.00,,,0.00,weatherlink.com 1.10,2013-06-12 11:54:00,
2013-06-12 08:09:00,64.3,62.0,29.87,NE,45,3.0,5.0,92,0.00,,,0.00,weatherlink.com 1.10,2013-06-12 12:09:00,
2013-06-12 08:24:00,65.1,62.0,29.88,East,88,2.0,5.0,90,0.00,,,0.00,weatherlink.com 1.10,2013-06-12 12:24:00,
2013-06-12 08:39:00,66.1,63.0,29.88,ENE,61,3.0,5.0,88,0.00,,,0.00,weatherlink.com 1.10,2013-06-12 12:39:00,
2013-06-12 08:54:00,67.5,63.0,29.87,ENE,71,0.0,4.0,85,0.00,,,0.00,weatherlink.com 1.10,2013-06-12 12:54:00,
2013-06-12 09:09:00,68.9,63.0,29.87,NE,55,0.0,4.0,82,0.00,,,0.00,weatherlink.com 1.10,2013-06-12 13:09:00,
2013-06-12 09:24:00,69.0,63.0,29.87,NE,53,4.0,5.0,82,0.00,,,0.00,weatherlink.com 1.10,2013-06-12 13:24:00,
2013-06-12 09:39:00,70.3,64.0,29.88,NE,51,3.0,5.0,80,0.00,,,0.00,weatherlink.com 1.10,2013-06-12 13:39:00,
2013-06-12 09:54:00,71.9,65.0,29.87,ESE,103,3.0,4.0,78,0.00,,,0.00,weatherlink.com 1.10,2013-06-12 13:54:00,
2013-06-12 10:09:00,72.5,64.0,29.87,East,82,3.0,5.0,75,0.00,,,0.00,weatherlink.com 1.10,2013-06-12 14:09:00,
2013-06-12 10:24:00,72.5,64.0,29.87,ENE,73,0.0,5.0,74,0.00,,,0.00,weatherlink.com 1.10,2013-06-12 14:24:00,
2013-06-12 10:39:00,73.4,64.0,29.87,NE,44,4.0,6.0,73,0.00,,,0.00,weatherlink.com 1.10,2013-06-12 14:39:00,
2013-06-12 10:54:00,73.5,64.0,29.88,NNW,341,2.0,4.0,72,0.00,,,0.00,weatherlink.com 1.10,2013-06-12 14:54:00,
2013-06-12 11:09:00,73.2,64.0,29.88,North,355,2.0,4.0,73,0.00,,,0.00,weatherlink.com 1.10,2013-06-12 15:09:00,
2013-06-12 11:24:00,72.6,65.0,29.89,NNW,340,5.0,8.0,78,0.00,,,0.00,weatherlink.com 1.10,2013-06-12 15:24:00,
2013-06-12 11:39:00,70.9,64.0,29.88,NNE,26,3.0,6.0,79,0.00,,,0.00,weatherlink.com 1.10,2013-06-12 15:39:00,
2013-06-12 11:54:00,70.9,64.0,29.89,NE,42,4.0,6.0,78,0.00,,,0.00,weatherlink.com 1.10,2013-06-12 15:54:00,
2013-06-12 12:09:00,71.4,64.0,29.89,North,355,2.0,6.0,76,0.00,,,0.00,weatherlink.com 1.10,2013-06-12 16:09:00,
2013-06-12 12:24:00,72.0,64.0,29.89,North,355,5.0,6.0,75,0.00,,,0.00,weatherlink.com 1.10,2013-06-12 16:24:00,
2013-06-12 12:39:00,70.9,63.0,29.88,NE,35,3.0,7.0,77,0.00,,,0.00,weatherlink.com 1.10,2013-06-12 16:39:00,
2013-06-12 12:54:00,71.1,63.0,29.88,NNE,13,4.0,5.0,76,0.00,,,0.00,weatherlink.com 1.10,2013-06-12 16:54:00,
2013-06-12 13:09:00,72.7,63.0,29.88,NNW,338,3.0,5.0,71,0.00,,,0.00,weatherlink.com 1.10,2013-06-12 17:09:00,
2013-06-12 13:24:00,73.3,64.0,29.87,NE,42,3.0,4.0,72,0.00,,,0.00,weatherlink.com 1.10,2013-06-12 17:24:00,
2013-06-12 13:39:00,73.5,64.0,29.86,NNW,342,1.0,5.0,71,0.00,,,0.00,weatherlink.com 1.10,2013-06-12 17:39:00,
2013-06-12 13:54:00,73.4,65.0,29.86,WNW,300,2.0,4.0,74,0.00,,,0.00,weatherlink.com 1.10,2013-06-12 17:54:00,
2013-06-12 14:09:00,73.3,64.0,29.85,NNW,342,0.0,5.0,72,0.00,,,0.00,weatherlink.com 1.10,2013-06-12 18:09:00,
2013-06-12 14:24:00,74.8,64.0,29.84,NE,41,1.0,3.0,70,0.00,,,0.00,weatherlink.com 1.10,2013-06-12 18:24:00,
2013-06-12 14:39:00,75.1,64.0,29.82,ESE,123,1.0,3.0,69,0.00,,,0.00,weatherlink.com 1.10,2013-06-12 18:39:00,
2013-06-12 14:54:00,75.3,65.0,29.82,NE,46,2.0,3.0,71,0.00,,,0.00,weatherlink.com 1.10,2013-06-12 18:54:00,
2013-06-12 15:09:00,75.8,66.0,29.80,ESE,103,0.0,4.0,72,0.00,,,0.00,weatherlink.com 1.10,2013-06-12 19:09:00,
2013-06-12 15:24:00,76.1,67.0,29.79,East,82,1.0,4.0,73,0.00,,,0.00,weatherlink.com 1.10,2013-06-12 19:24:00,
2013-06-12 15:39:00,75.9,67.0,29.77,ESE,121,1.0,7.0,74,0.00,,,0.00,weatherlink.com 1.10,2013-06-12 19:39:00,
2013-06-12 15:55:00,75.4,67.0,29.78,ESE,121,3.0,5.0,74,0.00,,,0.00,weatherlink.com 1.10,2013-06-12 19:55:00,
2013-06-12 16:10:00,75.5,67.0,29.78,South,178,0.0,3.0,75,0.00,,,0.00,weatherlink.com 1.10,2013-06-12 20:10:00,
2013-06-12 16:25:00,75.3,67.0,29.82,West,273,2.0,6.0,76,0.00,,,0.00,weatherlink.com 1.10,2013-06-12 20:25:00,
2013-06-12 16:40:00,72.9,64.0,29.82,North,350,1.0,7.0,73,0.00,,,0.00,weatherlink.com 1.10,2013-06-12 20:40:00,
2013-06-12 16:55:00,70.2,62.0,29.80,NE,45,6.0,9.0,74,0.00,,,0.00,weatherlink.com 1.10,2013-06-12 20:55:00,
2013-06-12 17:10:00,69.4,62.0,29.81,ENE,66,2.0,7.0,78,0.00,,,0.00,weatherlink.com 1.10,2013-06-12 21:10:00,
2013-06-12 17:25:00,69.1,62.0,29.82,NW,319,2.0,6.0,77,0.00,,,0.00,weatherlink.com 1.10,2013-06-12 21:25:00,
2013-06-12 17:40:00,69.0,61.0,29.82,NE,51,2.0,3.0,76,0.00,,,0.00,weatherlink.com 1.10,2013-06-12 21:40:00,
2013-06-12 17:55:00,69.5,62.0,29.81,North,9,0.0,3.0,76,0.00,,,0.00,weatherlink.com 1.10,2013-06-12 21:55:00,
2013-06-12 18:10:00,69.1,62.0,29.81,North,9,0.0,3.0,77,0.00,,,0.00,weatherlink.com 1.10,2013-06-12 22:10:00,
2013-06-12 18:40:00,68.5,62.0,29.81,North,11,1.0,3.0,79,0.00,,,0.00,weatherlink.com 1.10,2013-06-12 22:40:00,
2013-06-12 18:55:00,68.2,62.0,29.82,NNE,30,0.0,2.0,80,0.00,,,0.00,weatherlink.com 1.10,2013-06-12 22:55:00,
2013-06-12 19:10:00,68.0,62.0,29.80,ENE,78,1.0,5.0,82,0.00,,,0.00,weatherlink.com 1.10,2013-06-12 23:10:00,
2013-06-12 19:25:00,67.9,62.0,29.79,East,88,0.0,3.0,81,0.00,,,0.00,weatherlink.com 1.10,2013-06-12 23:25:00,
2013-06-12 19:40:00,68.0,62.0,29.79,ENE,67,0.0,2.0,81,0.00,,,0.00,weatherlink.com 1.10,2013-06-12 23:40:00,
2013-06-12 19:55:00,68.1,62.0,29.79,ENE,67,0.0,0.0,81,0.00,,,0.00,weatherlink.com 1.10,2013-06-12 23:55:00,
2013-06-12 20:10:00,68.1,62.0,29.78,ENE,67,0.0,0.0,82,0.00,,,0.00,weatherlink.com 1.10,2013-06-13 00:10:00,
2013-06-12 20:25:00,67.6,63.0,29.77,ENE,69,0.0,1.0,86,0.00,,,0.00,weatherlink.com 1.10,2013-06-13 00:25:00,
2013-06-12 20:40:00,67.4,64.0,29.76,ENE,69,0.0,0.0,88,0.00,,,0.00,weatherlink.com 1.10,2013-06-13 00:40:00,
2013-06-12 20:55:00,67.0,63.0,29.77,ENE,69,0.0,0.0,87,0.00,,,0.00,weatherlink.com 1.10,2013-06-13 00:55:00,
2013-06-12 21:10:00,67.0,64.0,29.77,ENE,69,0.0,0.0,89,0.00,,,0.00,weatherlink.com 1.10,2013-06-13 01:10:00,
2013-06-12 21:25:00,66.3,63.0,29.77,ENE,69,0.0,0.0,90,0.00,,,0.00,weatherlink.com 1.10,2013-06-13 01:25:00,
2013-06-12 21:40:00,65.8,64.0,29.76,SE,146,1.0,2.0,92,0.00,,,0.00,weatherlink.com 1.10,2013-06-13 01:40:00,
2013-06-12 21:55:00,65.7,63.0,29.75,SSE,151,0.0,2.0,92,0.00,,,0.00,weatherlink.com 1.10,2013-06-13 01:55:00,
2013-06-12 22:10:00,65.9,64.0,29.75,SSE,151,0.0,3.0,92,0.00,,,0.00,weatherlink.com 1.10,2013-06-13 02:10:00,
2013-06-12 22:25:00,66.2,64.0,29.75,SSE,151,0.0,1.0,92,0.00,,,0.00,weatherlink.com 1.10,2013-06-13 02:25:00,
2013-06-12 23:10:00,66.5,65.0,29.73,SSE,154,0.0,2.0,94,0.02,,,0.02,weatherlink.com 1.10,2013-06-13 03:10:00,
2013-06-12 23:25:00,66.7,65.0,29.71,ENE,78,3.0,3.0,95,0.02,,,0.02,weatherlink.com 1.10,2013-06-13 03:25:00,
2013-06-12 23:40:00,67.2,66.0,29.72,South,177,1.0,4.0,95,0.02,,,0.02,weatherlink.com 1.10,2013-06-13 03:40:00,
2013-06-12 23:55:00,67.6,66.0,29.70,East,85,1.0,3.0,95,0.02,,,0.03,weatherlink.com 1.10,2013-06-13 03:55:00,